Regional Weather Roundup
Issued by NWS Austin/San Antonio, TX

Home | Current Version | Previous Version | Text Only | Print | Product List | Glossary On
Versions: 1 2 3 4 5 6 7 8 9 10 11 12 13 14 15 16 17 18 19 20 21 22 23 24 25 26 27 28 29 30 31 32 33 34 35 36 37 38 39 40 41 42 43 44 45 46 47 48 49 50
000
ASUS44 KEWX 260911
RWREWX
SOUTH TEXAS REGIONAL WEATHER ROUNDUP
NATIONAL WEATHER SERVICE AUSTIN/SAN ANTONIO TX
400 AM CDT TUE MAY 26 2020

NOTE: "FAIR" INDICATED FEW OR NO CLOUDS BELOW 12,000 FEET WITH NO
SIGNIFICANT WEATHER AND/OR OBSTRUCTIONS TO VISIBILITY.

* - THESE STATIONS ARE NOT NWS OR FAA STATIONS...AND ARE NOT SUBJECT
    TO NWS AND FAA QUALITY CONTROL.

TXZ171-172-183>190-261000-
TEXAS HILL COUNTRY AND EDWARDS PLATEAU

CITY           SKY/WX    TMP DP  RH WIND       PRES   REMARKS
JUNCTION       MOCLDY    65  64  97 CALM      29.96R
*LLANO         FAIR      66  64  94 CALM      29.96R
BURNET         LGT RAIN  66  61  84 CALM      29.95S
*HORSESHOE BAY CLOUDY    66  63  88 SE3       29.93S
*LAGO VISTA    CLOUDY    65  62  93 SE7       29.93F
*KERRVILLE     CLOUDY    64  62  91 CALM      29.93S
*FREDERICKSBRG CLOUDY    66  65  96 CALM      29.94R
*ROCKSPRINGS   NOT AVBL
*BOERNE        FAIR      63  63 100 CALM      29.94F
HONDO          FAIR      65  64  97 S3        29.91S
*UVALDE        NOT AVBL
DEL RIO        FAIR      69  65  86 CALM      29.90R
*LAUGHLIN AFB  FAIR      68  65  93 CALM      29.91R
*SPOFFORD      NOT AVBL
*EAGLE PASS    CLOUDY    70  64  83 E9G15     29.91R
CARRIZO SPRGS  RAIN      68  64  88 E3        29.89R
$$

TXZ173-191>194-202-209-217>225-228-261000-
CENTRAL AND SOUTH CENTRAL TEXAS

CITY           SKY/WX    TMP DP  RH WIND       PRES   REMARKS
GEORGETOWN     CLOUDY    67  63  87 SE3       29.95R
*TAYLOR        CLOUDY    66  64  94 CALM      29.94R
AUSTIN/BERGSTM FAIR      67  65  93 N6        29.92S
AUSTIN/MABRY   CLOUDY    69  64  84 CALM      29.94S
*PFLUGERVILLE  CLOUDY    66  66 100 CALM      29.94R
SAN MARCOS     FAIR      67  66  97 NE5       29.93S
NEW BRAUNFELS  MOCLDY    69  65  86 N7        29.91R
*RANDOLPH AFB  MOCLDY    66  66  99 CALM      29.92R
*SEGUIN        FAIR      67  65  96 N8        29.95R
SAN ANTONIO    CLOUDY    68  64  87 NE5       29.92S
STINSON FIELD  CLOUDY    67  67 100 N3        29.90S
*KELLY FIELD   FAIR      69  68  97 NE3       29.90S
*PLEASANTON    FAIR      68  67  96 N6        29.90R
*KENEDY        LGT RAIN  68  66  92 E13G20    29.86F
*LA GRANGE     MOCLDY    69  69 100 N9        29.87R
*GIDDINGS      FAIR      65  63  93 N5        29.93R
*GONZALES      FAIR      69  68  98 NW5       29.90R
$$

TXZ163>164-176>182-195>201-210>213-226-227-235-261000-
SOUTHEAST TEXAS

CITY           SKY/WX    TMP DP  RH WIND       PRES   REMARKS
COLLEGE STN    MOCLDY    67  65  93 S5        29.91R
*BRYAN         FAIR      67  67 100 SE6       29.92R
*CALDWELL      FAIR      66 N/A N/A CALM      29.92R
*CROCKETT      NOT AVBL
*BRENHAM       FAIR      67  67  99 NW10      29.92R
HUNTSVILLE     LGT RAIN  67  64  90 VRB3      29.88F
CONROE         RAIN      68  66  93 CALM      29.92F FOG
HOUSTON BUSH   LGT RAIN  69  66  90 N5        29.91F
HOUSTON HOBBY  LGT RAIN  70  66  87 NW8       29.91R
*HOUSTON SW AP DRIZZLE   68  65  92 N7        29.92F
PEARLAND       LGT RAIN  72  65  78 N10       29.92F
HOUSTON HOOKS  LGT RAIN  67  64  90 SE3       29.90F
ELLINGTON FLD  LGT RAIN  70  64  83 NW17      29.91R
SUGAR LAND     LGT RAIN  69  68  96 N6        29.91S
*HOUSTON EXEC  LGT RAIN  68  68 100 CALM      29.93F
*CLEVELAND MUN TSTM      67  66  96 CALM      29.93F
*WHARTON       RAIN      67  64  91 N7        29.94R
*COLUMBUS      RAIN      68  67  98 SE15      29.90F
*EAGLE LAKE    RAIN      70  69  96 SW6       29.94S
$$

TXZ214>216-236>238-261000-
THE UPPER TEXAS COAST

CITY           SKY/WX    TMP DP  RH WIND       PRES   REMARKS
*ORANGE        CLOUDY    72  70  92 NW3       29.87R THUNDER
PORT ARTHUR    TSTM      70  68  93 W14G22    29.88R
GALVESTON      CLOUDY    76  68  76 NW24G31   29.91R
ANGLETON       LGT RAIN  70  66  87 N16G24    29.91S
*BAY CITY      LGT RAIN  71  70  95 N8        29.90F
PALACIOS       RAIN      70  67  90 MISG      29.92R
$$

TXZ229>234-239>247-261000-
TEXAS COASTAL BEND AND RIO GRANDE PLAINS

CITY           SKY/WX    TMP DP  RH WIND       PRES   REMARKS
VICTORIA       RAIN      69  66  90 E13       29.89F FOG
*BEEVILLE      FAIR      69  69 100 E10       29.85S
ROCKPORT       RAIN      73  67  81 N17G28    29.93R
*PORT ARANSAS  TSTM      71  69  93 N24G32    29.92R FOG
*PORT LAVACA   RAIN      71  69  95 N13       29.95R
*INGLESIDE     RAIN      71  70  99 NE22G31   29.90F
CORPUS CHRISTI TSTM      70  69  97 NE26G33   29.86S
CORPUS NAS     RAIN      72  32  23 NE30G44   29.87F
*ROBSTOWN      LGT RAIN  69  67  93 NE18G25   29.87F
ALICE          FAIR      70  67  90 E15G25    29.85F
KINGSVILLE NAS LGT RAIN  72  69  90 NE14      29.86F
COTULLA        CLOUDY    67  66  97 N12       29.87R
LAREDO         CLOUDY    70  68  93 NE15      29.86R
$$

TXZ248>255-261000-
DEEP SOUTH TEXAS

CITY           SKY/WX    TMP DP  RH WIND       PRES   REMARKS
BROWNSVILLE    FAIR      80  74  81 E10       29.75F
PORT ISABEL    FAIR      78  73  84 N6        29.79R
HARLINGEN      LGT RAIN  77  75  93 NE9       29.80R
*HEBBRONVILLE  CLOUDY    70  69  96 E15G23    29.86R
MCALLEN        LGT RAIN  78  74  87 N12       29.79R
*WESLACO       TSTM      76  73  90 NE10G16   29.78
FALFURRIAS     NOT AVBL
EDINBURG       TSTM      76  73  93 N18       29.83R
*ZAPATA        NOT AVBL
$$

TXZ213>215-236>238-242>244-246-247-251-254-255-261000-
CMAN STATIONS

STATION/POSITION TIME  TEMP    WIND        PRES    WAVE
                       AIR SEA DIR/SP/G            HT/PER
                 (UTC) (F)     (DEG/KT/KT) (MB)    (FT/S)
SABINE PASS      0830   74 83   CALM  /  3 1011.6
NORTH JETTY/GLS  0824   75 82  340/ 17/ 20 1010.3
EAGLE POINT      0830   74 80  330/ 12/ 20 1012.0
MORGANS POINT    0830   71 82  330/ 17/ 23 1012.7
PORT O`CONNOR    0830   74 81   10/ 22/ 25 1012.8
PORT ARANSAS     0900   71 80  350/ 26/ 31 1012.4
MALAQUITE BEACH  0830   74 89  340/ 18/ 21 1012.0
BAFFIN BAY       0830   73 81  360/ 18/ 23 1011.4
PORT ISABEL      0830   79 80   80/ 10/ 13 1009.4
$$




USA.gov is the U.S. government's official web portal to all federal, state and local government web resources and services.